Preview of NWS' New Version of Forecast
This preview is not operational and should not be used for support decisions.

Regional Weather Roundup (RWR)

Issued by National Weather Service (NWS)

                            
000
ASPQ40 PGUM 250610
RWRPQ 
WEATHER ROUNDUP FOR THE MARIANAS AND MICRONESIA
NATIONAL WEATHER SERVICE TIYAN GU
400 PM CHST TUE JUN 25 2019

GUZ001>004-250700-
MARIANA ISLANDS-
  
CITY           SKY/WX    TMP DP  RH WIND       PRES   REMARKS
GUAM AIRPORT   MOSUNNY   88  73  62 E17G23    29.87S HX  96           
ANDERSEN AFB   MOSUNNY   86  73  66 E13       29.88S HX  93           
ROTA AIRPORT   PTSUNNY   84  72  65 E15       29.87F                  
TINIAN AP      MOSUNNY   90  75  62 E16       29.87S HX 100           
SAIPAN AP      MOSUNNY   88  73  62 E17       29.88F HX  96           

$$

PMZ161-250700-
REPUBLIC OF PALAU-
  
CITY           SKY/WX    TMP DP  RH WIND       PRES   REMARKS
KOROR AP       CLOUDY    84  75  74 NW5       29.81F HX  92           
KOROR WSO      NOT AVBL                                               

$$

PMZ171>174-250700-
FEDERATED STATES OF MICRONESIA-
  
CITY           SKY/WX    TMP DP  RH WIND       PRES   REMARKS
YAP AIRPORT    PTSUNNY   88  79  74 E9        29.82R HX 102           
CHUUK AP       CLOUDY    84  79  84 VRB3      29.81R HX  96           
POHNPEI AP     NOT AVBL                                               
POHNPEI WSO    LGT RAIN  77  75  94 SE3       29.87R                  
KOSRAE AP      NOT AVBL                                               

$$

PMZ181-250700-
REPUBLIC OF THE MARSHALL ISLANDS-
  
CITY           SKY/WX    TMP DP  RH WIND       PRES   REMARKS
KWAJALEIN AP   SUNNY     84  79  84 SE12      29.85R HX  96           
MAJURO AP      NOT AVBL                                               
MAJURO WSO     PTSUNNY   84  77  79 E12       29.82R HX  94           

$$